Eagle, AK

7:58 AM AKST on December 12, 2017 (GMT -0900)
Eagle

Weather History for PAEG - September, 2013

Change the Weather History Date:

Tuesday, September 17, 2013

  Actual Average (PABN) Record (PABN)
Temperature  
Mean Temperature 34 °F -  
Max Temperature 37 °F 43 °F 59 °F (2010)
Min Temperature 30 °F 31 °F 24 °F (2003)
Degree Days  
Heating Degree Days 32    
Moisture  
Dew Point 27 °F    
Average Humidity 80    
Maximum Humidity 93    
Minimum Humidity 52    
Precipitation  
Precipitation 0.01 in - - ()
Sea Level Pressure  
Sea Level Pressure 29.72 in    
Wind  
Wind Speed 2 mph (West)    
Max Wind Speed 7 mph    
Max Gust Speed 16 mph    
Visibility 7 miles    
Events Snow    
Averages and records for this station are not official NWS values.
T = Trace of Precipitation, MM = Missing Value Source: NWS Daily Summary

Daily Weather History Graph

Daily Weather History Graph

Search for Another Location

Airport or City:

Trip Planner

Search our weather history database for the weather conditions in past years. The results will help you decide how hot, cold, wet, or windy it might be!

Date:

Astronomy

Sep. 17, 2013 Rise Set
Actual Time 6:53 AM AKDT 7:42 PM AKDT
Civil Twilight 6:04 AM AKDT 8:31 PM AKDT
Nautical Twilight 5:01 AM AKDT 9:33 PM AKDT
Astronomical Twilight 3:45 AM AKDT 10:47 PM AKDT
Moon 6:47 PM AKDT (9/17) 4:30 AM AKDT (9/17)
Length of Visible Light 14h 27m
Length of Day
12h 48m
Waxing Gibbous, 96% of the Moon is Illuminated
Sep 17
Waxing Gibbous
Sep 19
Full
Sep 26
Last Quarter
Oct 4
New
Oct 11
First Quarter

Hourly Weather History & Observations

Time (AKDT) Temp. Windchill Dew Point Humidity Pressure Visibility Wind Dir Wind Speed Gust Speed Precip Events Conditions
12:53 AM 35.1 °F 29.3 °F 19.0 °F 52% 29.78 in 10.0 mi ENE 6.9 mph 16.1 mph N/A   Overcast
1:53 AM 35.1 °F 31.0 °F 19.9 °F 54% 29.78 in 10.0 mi ENE 4.6 mph - N/A   Overcast
2:53 AM 33.1 °F - 21.9 °F 64% 29.76 in 10.0 mi Calm Calm - N/A   Overcast
3:53 AM 32.0 °F - 21.9 °F 66% 29.75 in 10.0 mi Calm Calm - N/A   Overcast
4:53 AM 30.9 °F - 24.1 °F 76% 29.74 in 10.0 mi Calm Calm - N/A   Overcast
5:53 AM 30.9 °F 27.5 °F 24.1 °F 76% 29.74 in 10.0 mi SSW 3.5 mph - N/A   Overcast
6:53 AM 30.9 °F - 26.1 °F 82% 29.74 in 3.0 mi Calm Calm - 0.00 in Snow Light Snow
7:00 AM 30.2 °F - 26.6 °F 86% 29.71 in 2.5 mi Calm Calm - 0.00 in Snow Light Snow
7:18 AM 30.2 °F - 26.6 °F 86% 29.71 in 1.5 mi Calm Calm - 0.00 in Snow Light Snow
7:45 AM 30.2 °F - 28.4 °F 93% 29.72 in 1.8 mi Calm Calm - 0.01 in Snow Light Snow
7:53 AM 30.9 °F - 28.0 °F 89% 29.75 in 2.0 mi Calm Calm - 0.01 in Snow Light Snow
8:03 AM 30.2 °F - 28.4 °F 93% 29.71 in 4.0 mi Calm Calm - 0.00 in Snow Light Snow
8:21 AM 30.2 °F - 28.4 °F 93% 29.71 in 2.0 mi Calm Calm - 0.00 in Snow Light Snow
8:24 AM 30.2 °F - 28.4 °F 93% 29.72 in 1.8 mi Calm Calm - 0.00 in Snow Light Snow
8:40 AM 30.2 °F - 28.4 °F 93% 29.72 in 2.5 mi Calm Calm - 0.00 in Snow Light Snow
8:53 AM 30.9 °F - 28.0 °F 89% 29.75 in 1.8 mi Calm Calm - 0.00 in Snow Light Snow
9:04 AM 30.2 °F - 28.4 °F 93% 29.72 in 2.0 mi Calm Calm - 0.00 in Snow Light Snow
9:11 AM 30.2 °F - 28.4 °F 93% 29.72 in 1.5 mi Calm Calm - 0.00 in Snow Light Snow
9:22 AM 30.2 °F - 28.4 °F 93% 29.71 in 2.5 mi Calm Calm - 0.00 in Snow Light Snow
9:29 AM 30.2 °F - 28.4 °F 93% 29.71 in 5.0 mi Calm Calm - 0.00 in Snow Light Snow
9:45 AM 30.2 °F - 26.6 °F 86% 29.71 in 10.0 mi Calm Calm - 0.00 in   Overcast
9:53 AM 30.9 °F 27.5 °F 28.0 °F 89% 29.74 in 6.0 mi West 3.5 mph - 0.00 in   Overcast
10:04 AM 30.2 °F - 28.4 °F 93% 29.71 in 4.0 mi Calm Calm - N/A   Overcast
10:53 AM 32.0 °F 27.5 °F 28.0 °F 85% 29.73 in 10.0 mi West 4.6 mph - N/A   Overcast
11:53 AM 34.0 °F 29.8 °F 27.0 °F 75% 29.73 in 10.0 mi West 4.6 mph - N/A   Overcast
12:53 PM 35.1 °F 30.1 °F 27.0 °F 72% 29.72 in 10.0 mi WSW 5.8 mph - N/A   Overcast
1:53 PM 36.0 °F 32.1 °F 26.1 °F 67% 29.71 in 10.0 mi WNW 4.6 mph - N/A   Overcast
2:53 PM 37.0 °F 34.5 °F 27.0 °F 67% 29.70 in 10.0 mi West 3.5 mph - N/A   Overcast
3:53 PM 37.0 °F 33.3 °F 26.1 °F 65% 29.69 in 10.0 mi WSW 4.6 mph - N/A   Overcast
4:53 PM 37.9 °F 34.4 °F 26.1 °F 62% 29.68 in 10.0 mi West 4.6 mph - N/A   Overcast
5:53 PM 37.9 °F 35.5 °F 27.0 °F 65% 29.68 in 10.0 mi WNW 3.5 mph - N/A   Overcast
6:53 PM 37.0 °F - 27.0 °F 67% 29.68 in 10.0 mi Calm Calm - N/A   Overcast
7:53 PM 36.0 °F 32.1 °F 28.9 °F 76% 29.69 in 10.0 mi West 4.6 mph - N/A   Overcast
8:53 PM 35.1 °F 30.1 °F 30.0 °F 82% 29.69 in 10.0 mi West 5.8 mph - N/A   Overcast
9:53 PM 35.1 °F 31.0 °F 28.9 °F 78% 29.68 in 10.0 mi WSW 4.6 mph - N/A   Overcast
10:29 PM 35.6 °F 32.8 °F 28.4 °F 75% 29.66 in 10.0 mi WSW 3.5 mph - N/A   Overcast
10:53 PM 35.1 °F - 30.0 °F 82% 29.68 in 10.0 mi Calm Calm - N/A   Overcast
11:53 PM 35.1 °F - 30.0 °F 82% 29.68 in 10.0 mi Calm Calm - N/A   Overcast